AA8FM-13 Weather Reports


Display with metric or nautical units.
time (UTC)temp
F
wind
direction
speed
MPH
gust
MPH
rain 1hr
in
rain 24hr
in
rain mn
in
humidity
%
barometer
mb
20260504050526 48 248 0.0 0.0 0.00 0.00 0.00 63 1012.0
20260504050022 48 250 0.0 0.0 0.00 0.00 0.00 64 1011.7
20260504045519 48 254 0.0 0.0 0.00 0.00 0.00 65 1012.0
20260504045015 48 253 0.0 0.0 0.00 0.00 0.00 65 1012.0
20260504044513 48 249 0.0 0.0 0.00 0.00 0.00 65 1012.0
20260504044009 48 256 0.0 0.0 0.00 0.00 0.00 64 1012.0
20260504043506 49 256 0.0 0.0 0.00 0.00 0.00 62 1012.0
20260504043004 50 242 0.0 0.0 0.00 0.00 0.00 64 1011.9
20260504042500 50 230 0.0 0.0 0.00 0.00 0.00 59 1011.9
20260504041957 50 228 0.0 0.0 0.00 0.00 0.00 61 1011.9
20260504041453 50 235 0.0 0.0 0.00 0.00 0.00 65 1012.1
20260504040949 50 233 0.0 0.0 0.00 0.00 0.00 65 1012.0
20260504040447 50 269 0.0 0.0 0.00 0.00 0.00 65 1012.0
20260504035943 49 179 0.0 0.0 0.00 0.00 0.00 64 1012.1
20260504035441 49 247 0.0 0.0 0.00 0.00 0.00 69 1012.0
20260504034937 49 244 0.0 0.0 0.00 0.00 0.00 69 1011.9
20260504034435 48 269 0.0 0.0 0.00 0.00 0.00 69 1012.1
20260504033931 48 249 0.0 0.0 0.00 0.00 0.00 78 1011.9
20260504033429 48 246 0.0 0.0 0.00 0.00 0.00 78 1012.1
20260504032926 47 258 0.0 0.0 0.00 0.00 0.00 74 1012.1
20260504032423 47 254 0.0 0.0 0.00 0.00 0.00 78 1011.9
20260504031920 47 251 0.0 0.0 0.00 0.00 0.00 78 1012.2
20260504031417 46 254 0.0 0.0 0.00 0.00 0.00 77 1012.1
20260504030913 46 254 0.0 0.0 0.00 0.00 0.00 78 1012.1
20260504030410 46 238 0.0 0.0 0.00 0.00 0.00 78 1012.1
20260504025906 46 256 0.0 0.0 0.00 0.00 0.00 73 1012.0
20260504025403 46 265 0.0 0.0 0.00 0.00 0.00 74 1012.1
20260504024900 46 269 0.0 0.0 0.00 0.00 0.00 76 1011.9
20260504024356 46 253 0.0 0.0 0.00 0.00 0.00 74 1012.1
20260504023854 46 253 0.0 0.0 0.00 0.00 0.00 71 1012.2
20260504023350 46 264 0.0 0.0 0.00 0.00 0.00 68 1012.4
20260504022846 46 267 0.0 0.0 0.00 0.00 0.00 69 1012.2
20260504022343 46 265 0.0 0.0 0.00 0.00 0.00 70 1012.3
20260504021839 46 263 0.0 0.0 0.00 0.00 0.00 69 1012.3
20260504021337 46 266 0.0 0.0 0.00 0.00 0.00 69 1012.4
20260504020834 46 268 0.0 0.0 0.00 0.00 0.00 69 1012.2
20260504020331 46 263 0.0 0.0 0.00 0.00 0.00 67 1012.1
20260504015826 47 264 0.0 0.0 0.00 0.00 0.00 67 1012.2
20260504015323 47 276 0.0 0.0 0.00 0.00 0.00 65 1012.2
20260504014819 47 255 0.0 0.0 0.00 0.00 0.00 69 1011.9
20260504014315 48 256 0.0 0.0 0.00 0.00 0.00 68 1012.0
20260504013813 48 257 0.0 0.0 0.00 0.00 0.00 65 1012.1
20260504013311 48 259 0.0 0.0 0.00 0.00 0.00 65 1012.0
20260504012807 48 249 0.0 0.0 0.00 0.00 0.00 64 1012.1
20260504012305 49 257 0.0 0.0 0.00 0.00 0.00 61 1012.3
20260504011802 48 257 0.0 0.0 0.00 0.00 0.00 62 1012.1
20260504011258 49 253 0.0 0.0 0.00 0.00 0.00 62 1012.1
20260504010754 49 252 0.0 0.0 0.00 0.00 0.00 61 1012.2
20260504010250 49 251 0.0 0.0 0.00 0.00 0.00 62 1012.3
20260504005747 49 252 0.0 0.0 0.00 0.00 0.00 63 1012.0
20260504005244 50 252 0.0 0.0 0.00 0.00 0.00 61 1011.9
20260504004742 50 252 0.0 0.0 0.00 0.00 0.00 58 1012.1
20260504004239 51 253 0.0 0.0 0.00 0.00 0.00 56 1011.8
20260504003735 51 263 0.0 0.0 0.00 0.00 0.00 56 1011.8
20260504003232 51 279 0.0 0.0 0.00 0.00 0.00 53 1011.6
20260504002729 52 254 0.0 0.0 0.00 0.00 0.00 56 1012.0
20260504002225 53 237 0.0 0.0 0.00 0.00 0.00 53 1011.6
20260504001724 54 241 0.0 0.0 0.00 0.00 0.00 47 1011.9
20260504001220 54 238 0.0 0.0 0.00 0.00 0.00 51 1011.8
20260504000717 55 259 0.0 0.0 0.00 0.00 0.00 45 1012.0
20260504000214 55 217 0.0 0.0 0.00 0.00 0.00 43 1012.0
20260503235712 55 227 0.0 0.0 0.00 0.00 0.00 44 1011.9
20260503235209 55 295 0.0 0.0 0.00 0.00 0.00 43 1012.0
20260503234707 55 325 0.0 0.0 0.00 0.00 0.00 43 1011.8
20260503234205 56 236 0.0 0.0 0.00 0.00 0.00 41 1011.9
20260503233701 56 262 0.0 0.0 0.00 0.00 0.00 42 1011.9
20260503233157 56 216 0.0 0.0 0.00 0.00 0.00 42 1012.0
20260503232654 56 239 0.0 0.0 0.00 0.00 0.00 43 1012.0
20260503232151 56 252 0.0 0.0 0.00 0.00 0.00 41 1012.0
20260503231644 57 255 0.0 0.0 0.00 0.00 0.00 40 1012.0
20260503231140 57 151 2.0 3.0 0.00 0.00 0.00 39 1012.0
20260503230637 58 21 0.0 1.0 0.00 0.00 0.00 38 1012.1
20260503230134 58 293 1.0 2.0 0.00 0.00 0.00 40 1012.1
20260503225632 59 246 0.0 0.0 0.00 0.00 0.00 38 1012.0
20260503225131 58 213 0.0 1.0 0.00 0.00 0.00 38 1012.0
20260503224629 59 124 0.0 1.0 0.00 0.00 0.00 39 1012.1
20260503224127 59 130 2.0 3.0 0.00 0.00 0.00 37 1012.2
20260503223625 59 57 2.0 3.0 0.00 0.00 0.00 36 1012.1
20260503223120 59 337 1.0 2.0 0.00 0.00 0.00 37 1012.2
20260503222618 59 327 3.0 3.0 0.00 0.00 0.00 37 1012.2
20260503222116 59 19 6.0 8.0 0.00 0.00 0.00 37 1012.1
20260503221614 59 286 2.0 2.0 0.00 0.00 0.00 38 1012.2
20260503221111 60 37 2.0 3.0 0.00 0.00 0.00 37 1012.1
20260503220608 59 223 0.0 0.0 0.00 0.00 0.00 37 1012.1
20260503220104 59 338 3.0 4.0 0.00 0.00 0.00 37 1012.2
20260503215601 59 25 4.0 6.0 0.00 0.00 0.00 37 1012.0
20260503215058 59 256 0.0 0.0 0.00 0.00 0.00 37 1012.3
20260503214556 60 222 1.0 2.0 0.00 0.00 0.00 36 1012.2
20260503214052 59 310 3.0 3.0 0.00 0.00 0.00 37 1012.2
20260503213551 59 353 0.0 1.0 0.00 0.00 0.00 38 1011.9
20260503213047 60 358 3.0 3.0 0.00 0.00 0.00 39 1012.2
20260503212545 60 283 1.0 2.0 0.00 0.00 0.00 38 1011.9
20260503212042 59 117 8.0 9.0 0.00 0.00 0.00 37 1012.1
20260503211539 60 338 2.0 3.0 0.00 0.00 0.00 37 1012.3
20260503211034 59 350 3.0 3.0 0.00 0.00 0.00 37 1012.1
20260503210532 59 326 1.0 1.0 0.00 0.00 0.00 36 1012.3
20260503210027 60 79 1.0 4.0 0.00 0.00 0.00 36 1012.3
20260503205524 60 241 2.0 3.0 0.00 0.00 0.00 35 1012.3
20260503205021 60 157 3.0 3.0 0.00 0.00 0.00 38 1012.3
20260503204518 60 33 1.0 1.0 0.00 0.00 0.00 36 1012.4
20260503204015 59 178 0.0 1.0 0.00 0.00 0.00 37 1012.6
20260503203512 59 315 4.0 4.0 0.00 0.00 0.00 37 1012.5
20260503203009 59 144 4.0 4.0 0.00 0.00 0.00 35 1012.4
20260503202506 59 197 2.0 4.0 0.00 0.00 0.00 39 1012.9
20260503202005 58 32 3.0 4.0 0.00 0.00 0.00 39 1012.9
20260503201503 59 339 3.0 4.0 0.00 0.00 0.00 40 1012.6
20260503200959 58 192 1.0 1.0 0.00 0.00 0.00 38 1012.9
20260503200455 58 272 1.0 3.0 0.00 0.00 0.00 38 1013.1
20260503195952 59 341 4.0 6.0 0.00 0.00 0.00 39 1013.1
20260503195450 59 346 3.0 4.0 0.00 0.00 0.00 37 1013.3
20260503194945 59 13 2.0 3.0 0.00 0.00 0.00 36 1013.4
20260503194443 59 338 1.0 2.0 0.00 0.00 0.00 36 1013.4
20260503193938 60 43 0.0 1.0 0.00 0.00 0.00 40 1013.5
20260503193434 59 311 2.0 2.0 0.00 0.00 0.00 41 1013.6
20260503192930 59 261 1.0 2.0 0.00 0.00 0.00 38 1013.7
20260503192426 59 294 2.0 3.0 0.00 0.00 0.00 38 1013.7
20260503191922 59 99 4.0 8.0 0.00 0.00 0.00 37 1013.9
20260503191420 60 287 0.0 0.0 0.00 0.00 0.00 39 1013.8
20260503190916 58 268 2.0 2.0 0.00 0.00 0.00 40 1014.0
20260503190414 58 265 2.0 2.0 0.00 0.00 0.00 40 1014.0
20260503185910 59 273 0.0 0.0 0.00 0.00 0.00 45 1014.1
20260503185407 59 2 2.0 3.0 0.00 0.00 0.00 39 1014.0
20260503184906 58 322 4.0 6.0 0.00 0.00 0.00 39 1014.1
20260503184403 58 86 4.0 6.0 0.00 0.00 0.00 39 1014.1
20260503183859 58 142 3.0 4.0 0.00 0.00 0.00 39 1014.2
20260503183355 58 1 0.0 0.0 0.00 0.00 0.00 43 1014.4
20260503182853 59 343 2.0 2.0 0.00 0.00 0.00 40 1014.5
20260503182352 58 333 2.0 6.0 0.00 0.00 0.00 44 1014.3
20260503181848 57 247 1.0 1.0 0.00 0.00 0.00 40 1014.3
20260503181345 57 316 4.0 6.0 0.00 0.00 0.00 41 1014.4
20260503180842 56 5 1.0 2.0 0.00 0.00 0.00 42 1014.5
20260503180340 56 336 4.0 6.0 0.00 0.00 0.00 41 1014.5
20260503175836 56 338 3.0 6.0 0.00 0.00 0.00 44 1014.8
20260503175334 56 293 1.0 2.0 0.00 0.00 0.00 43 1014.7
20260503174834 55 219 1.0 3.0 0.00 0.00 0.00 50 1014.8
20260503174333 56 307 1.0 2.0 0.00 0.00 0.00 43 1014.8
20260503173828 56 269 2.0 2.0 0.00 0.00 0.00 42 1015.0
20260503173325 56 267 0.0 1.0 0.00 0.00 0.00 45 1014.8
20260503172821 56 269 1.0 2.0 0.00 0.00 0.00 44 1015.0
20260503172319 55 285 1.0 2.0 0.00 0.00 0.00 46 1015.0
20260503171815 54 347 1.0 2.0 0.00 0.00 0.00 43 1015.0
20260503171312 56 288 1.0 2.0 0.00 0.00 0.00 41 1015.0
20260503170809 55 228 1.0 2.0 0.00 0.00 0.00 44 1015.4
20260503170306 55 301 1.0 2.0 0.00 0.00 0.00 45 1015.1
20260503150658 49 121 6.0 6.0 0.00 0.00 0.00 52 1016.4
20260503150154 51 330 4.0 6.0 0.00 0.00 0.00 51 1016.4
20260503140118 46 4 3.0 4.0 0.00 0.00 0.00 66 1016.6
20260503131048 41 277 0.0 0.0 0.00 0.00 0.00 79 1016.5
20260503130545 41 22 0.0 1.0 0.00 0.00 0.00 81 1016.6
20260503110435 33 247 0.0 0.0 0.00 0.00 0.00 99 1015.5
20260503090326 32 256 0.0 0.0 0.00 0.00 0.00 99 1014.5
20260503081254 32 259 0.0 0.0 0.00 0.00 0.00 99 1014.5
20260503080749 32 260 0.0 0.0 0.00 0.00 0.00 98 1014.4
20260503080247 32 261 0.0 0.0 0.00 0.00 0.00 98 1014.3
20260503072724 33 261 0.0 0.0 0.00 0.00 0.00 97 1013.9
20260503072220 33 257 0.0 0.0 0.00 0.00 0.00 97 1013.9
20260503071717 33 245 0.0 0.0 0.00 0.00 0.00 97 1014.0
20260503071214 34 244 0.0 0.0 0.00 0.00 0.00 97 1013.8
20260503070710 34 244 0.0 0.0 0.00 0.00 0.00 97 1014.1
20260503070209 34 243 0.0 0.0 0.00 0.00 0.00 97 1014.0
20260503060133 36 254 0.0 0.0 0.00 0.00 0.00 94 1013.9
20260503055125 36 256 0.0 0.0 0.00 0.00 0.00 94 1013.7
20260503054620 36 258 0.0 0.0 0.00 0.00 0.00 94 1013.9
20260503054117 36 254 0.0 0.0 0.00 0.00 0.00 94 1013.9
20260503053615 36 251 0.0 0.0 0.00 0.00 0.00 94 1013.8
20260503053114 36 251 0.0 0.0 0.00 0.00 0.00 94 1014.0
20260503052610 36 251 0.0 0.0 0.00 0.00 0.00 94 1013.7
20260503052106 36 251 0.0 0.0 0.00 0.00 0.00 93 1013.8
20260503051601 36 251 0.0 0.0 0.00 0.00 0.00 93 1013.6